Overview Statistics Trail Chart Weather Telemetry Raw packets
 

This is the latest recevied weather packets stored in our database for station/object 4S6DRJ-13. If no packets are shown the sender has not sent any weather packets the latest 10 day(s).

<< 520 521 522 523 524 525 526 >>
Time Temp. Humidity Pressure Rain* Wind** Luminosity Snow
1787652475 28.89° C 80% 1008.8 hPa 0 mm 1.34 m/s, 290° 188 W/m² -
1787652414 28.89° C 80% 1008.8 hPa 0 mm 1.34 m/s, 299° 192 W/m² -
1787652353 28.89° C 80% 1009 hPa 0 mm 0.89 m/s, 223° 194 W/m² -
1787652292 28.89° C 80% 1008.8 hPa 0 mm 1.34 m/s, 333° 194 W/m² -
1787652231 28.89° C 80% 1008.8 hPa 0 mm 1.79 m/s, 258° 194 W/m² -
1787652170 28.89° C 79% 1008.6 hPa 0 mm 1.34 m/s, 11° 192 W/m² -
1787652109 28.89° C 79% 1008.7 hPa 0 mm 0.89 m/s, 291° 196 W/m² -
1787652048 28.89° C 79% 1008.8 hPa 0 mm 1.79 m/s, 331° 202 W/m² -
1787651988 28.89° C 78% 1008.8 hPa 0 mm 2.24 m/s, 297° 205 W/m² -
1787651926 28.89° C 78% 1008.9 hPa 0 mm 2.24 m/s, 247° 208 W/m² -
1787651865 28.89° C 78% 1008.8 hPa 0 mm 2.24 m/s, 230° 212 W/m² -
1787651804 28.89° C 78% 1008.7 hPa 0 mm 3.13 m/s, 156° 222 W/m² -
1787651743 28.89° C 77% 1008.8 hPa 0 mm 1.79 m/s, 280° 237 W/m² -
1787651682 28.89° C 78% 1008.9 hPa 0 mm 1.79 m/s, 143° 236 W/m² -
1787651621 28.89° C 78% 1008.7 hPa 0 mm 1.79 m/s, 296° 228 W/m² -
1787651560 28.89° C 78% 1008.8 hPa 0 mm 1.34 m/s, 322° 243 W/m² -
1787651499 28.89° C 78% 1008.9 hPa 0 mm 1.34 m/s, 342° 259 W/m² -
1787651438 28.89° C 78% 1009 hPa 0 mm 0.89 m/s, 213° 279 W/m² -
1787651377 28.89° C 78% 1008.9 hPa 0 mm 0.89 m/s, 260° 286 W/m² -
1787651316 28.89° C 78% 1008.9 hPa 0 mm 2.24 m/s, 291° 299 W/m² -
1787651255 28.89° C 78% 1008.8 hPa 0 mm 1.34 m/s, 295° 317 W/m² -
1787651194 28.89° C 78% 1008.9 hPa 0 mm 1.34 m/s, 269° 328 W/m² -
1787651133 28.89° C 77% 1008.9 hPa 0 mm 2.68 m/s, 30° 342 W/m² -
1787651072 28.89° C 77% 1009 hPa 0 mm 2.68 m/s, 274° 350 W/m² -
1787651011 28.89° C 78% 1008.7 hPa 0 mm 1.79 m/s, 5° 358 W/m² -

* Rain latest hour (hover to see other rain measurements)
** Current wind speed in m/s (hover to see current wind gust speed)